Hourly Data Report for July 05, 2004

TORONTO CITY
ONTARIO

43°40'00.000" N
79°24'00.000" W
112.50 m
6158355
71508
XTO

Download Data

Hourly Data (July 2004)
Hourly Data Report for July 5, 2004
TIME
LST
Temp Definition
°C
Dew Point Definition
°C
Rel Hum Definition
%
Precip. Amount Definition
mm

Wind Dir Definition
10's deg

Wind Spd Definition
km/h
Visibility Definition
km
Stn Press Definition
kPa
Hmdx Definition


Wind Chill Definition


Weather Definition


00:00 20.5 20.0 97   LegendMM LegendMM LegendMM 99.10 28   LegendNANA
01:00 20.2 19.5 96   LegendMM LegendMM LegendMM 99.05 27   LegendNANA
02:00 19.9 19.1 95   LegendMM LegendMM LegendMM 99.05     LegendNANA
03:00 18.9 18.1 95   LegendMM LegendMM LegendMM 99.02     LegendNANA
04:00 19.2 18.3 95   LegendMM LegendMM LegendMM 99.11     LegendNANA
05:00 18.6 17.9 96   LegendMM LegendMM LegendMM 99.15     LegendNANA
06:00 19.8 18.5 92   LegendMM LegendMM LegendMM 99.23     LegendNANA
07:00 22.3 18.9 81   LegendMM LegendMM LegendMM 99.26 29   LegendNANA
08:00 22.2 18.4 79   LegendMM LegendMM LegendMM 99.28 29   LegendNANA
09:00 22.0 18.8 82   LegendMM LegendMM LegendMM 99.32 29   LegendNANA
10:00 22.5 18.4 78   LegendMM LegendMM LegendMM 99.37 29   LegendNANA
11:00 22.1 17.5 75   LegendMM LegendMM LegendMM 99.44 28   LegendNANA
12:00 21.1 16.3 74   LegendMM LegendMM LegendMM 99.52 26   LegendNANA
13:00 20.0 15.1 73   LegendMM LegendMM LegendMM 99.62     LegendNANA
14:00 19.4 13.7 70   LegendMM LegendMM LegendMM 99.70     LegendNANA
15:00 18.8 13.2 70   LegendMM LegendMM LegendMM 99.80     LegendNANA
16:00 17.5 13.6 78   LegendMM LegendMM LegendMM 99.93     LegendNANA
17:00 17.1 12.4 74   LegendMM LegendMM LegendMM 99.95     LegendNANA
18:00 16.9 12.5 75   LegendMM LegendMM LegendMM 100.03     LegendNANA
19:00 16.4 12.5 78   LegendMM LegendMM LegendMM 100.07     LegendNANA
20:00 16.2 12.6 79   LegendMM LegendMM LegendMM 100.13     LegendNANA
21:00 16.0 12.9 82   LegendMM LegendMM LegendMM 100.27     LegendNANA
22:00                      
23:00                      

Notes on Data Quality.

Legend

  • E = Estimated
  • M = Missing
  • NA = Not Available*
  • [empty] = Indicates an unobserved value
Date modified: